Showing default

ANTELSAT, 40034

Orbit data source: Space-Track

ANTELSAT, 40034 is an Uruguayan payload satellite in SSO that was launched on Thu, 19 Jun 2014 UTC via a DNEPR launch vehicle from the Orenburg, Russia (OREN). Payloads include a variety of satellites, spacecraft, and rockets equipped with specific instruments for various scientific and technological missions. These include communications satellites like Starlink; space stations such as the ISS; scientific satellites like the Hubble; Earth observation satellites from companies like Planet Labs, Umbra, and HawkEye 360; GPS; miniature CubeSats for education and research; and military/defense satellites.

Loading next visibility...
ANTELSAT details
Identifier
40034, 2014-033AA
Orbit
SSO
Last TLE update14 hours ago
Origin
Flag of UYFING/ANTEL (UY / URY)
ManufacturerUdelaR FING
MissionNon-operational Civil Tech/Com
Bus & MotorCUBESAT 2U, Unknown motor
Mass~2 kg wet, ~2 kg dry
Launch date (UTC)
2014-06-19 (11 years ago)
Launch vehicle
DNEPR
Launch site
Orenburg, Russia (OREN)
Object type
Payload
Rocket body
Debris
Shape & HBRBox + 1 Ant, 0.2 m
Radar Cross Section0.040 m², Medium (>0.1 m² and < 1m²)

Expand to show TLE details & history

TLE from 14 hours ago
0 ANTELSAT
1 40034U 14033AA  24361.01023043  .00007829  00000-0  91323-3 0  9998
2 40034  97.7131 158.1019 0049525  33.8876 326.5487 14.84567783565774
Epoch: 2024-12-26T00:14Z
Definitive object data (Epoch: 2024-12-26T00:14:43.909Z)
Latitude0.00005°
Longitude59.42317°
Altitude589.126 km
Speed7.581 km/s
True Right ascension10h 32m 24s
True Declination0° 00' 00"
Sunlit
Object was in full shadow at TLE epoch
Visualization TLE readout
Latitude-22.01943°
Longitude-123.1416°
Altitude657.393 km
Speed7.509 km/s
Apparent Right ascension23h 40m 47s
Apparent Declination-32° 27' 30"
Sunlit
Object is in daylight
Visualization observer readout
Local Sidereal Time13:27:17
Azimuth79.163° E
Elevation-67.356°
Doppler factor1
Orbital elements
Apogee altitude646.588 km
Perigee altitude577.351 km
Semi-major axis6,990.106 km
Eccentricity0.0049525
Inclination97.7131°
RAAN158.1019°
Arg. of periapsis33.8876°
True anomaly326.23425°
Mean anomaly326.5487°
Eccentric anomaly326.39164°
Mean motion3.71379 °/min
BSTAR0.00091323
Orbital period96.94 mins
Loading maneuver chart data...
Loading historical data...
Loading historical data...
Loading historical data...
Loading historical data...
Loading historical data...
Loading historical data...
Loading historical data...

ANTELSAT Visibility forecast

Observer location: undefined°, undefined

Span
Click to sort rows by Start time (UTC) header in descending order
Start Az.
Max El. time (UTC)
Max El. Az.
Max El.
End time (UTC)
End Az.
7 mins2024-12-26 23:27:30.214Z17.451° NNE2024-12-26 23:31:30.214Z153.51° SSE42.176°2024-12-26 23:34:30.214Z185.914° SSW
7 mins2024-12-27 10:20:30.214Z145.053° SSE2024-12-27 10:23:30.214Z95.156° ESE35.208°2024-12-27 10:27:30.214Z1.412° NNE
|